Regional Weather Roundup
Issued by NWS

Home | Current Version | Previous Version | Text Only | Print | Product List | Glossary Off
Versions: 1 2 3 4 5 6 7 8 9 10 11 12 13 14 15 16 17 18 19 20 21 22 23 24 25 26 27 28 29 30 31 32 33 34 35 36 37 38 39 40 41 42 43 44 45 46 47 48 49 50

000
ASUS43 KMPX 271801
RWRMN
WEATHER ROUNDUP FOR MINNESOTA
NATIONAL WEATHER SERVICE TWIN CITIES/CHANHASSEN MN
100 PM CDT WED JUL 27 2016


NOTE: "FAIR" INDICATES FEW OR NO CLOUDS BELOW 12,000 FEET WITH NO
SIGNIFICANT WEATHER AND/OR OBSTRUCTIONS TO VISIBILITY. N/A MEANS
CURRENT SKY AND/OR WEATHER CONDITIONS ARE NOT AVAILABLE.

MNZ060>063-068>070-271900-
   Twin Cities Metro

CITY           SKY/WX    TMP DP  RH WIND       PRES   REMARKS
TWIN CITIES    TSTM      78  69  73 SE7       29.96R
6HR MIN TEMP:  76; 6HR MAX TEMP:  80; 6HR PCP:  0.01;

ST PAUL        TSTM      78  69  73 S8        29.96R
CRYSTAL        LGT RAIN  78  68  71 S5        29.94S
BLAINE         LGT RAIN  79  72  78 S8        29.95S
LAKEVILLE      CLOUDY    79  70  73 S5        29.97R
EDEN PRAIRIE   LGT RAIN  79  70  74 S5        29.95S
6HR MIN TEMP:  74; 6HR MAX TEMP:  80; 6HR PCP:  0.01;

LAKEVILLE      CLOUDY    79  70  73 S5        29.97R
SOUTH ST PAUL  CLOUDY    79  67  66 S7        29.96R THUNDER
LAKE ELMO      PTSUNNY   79  70  73 S7        29.99R
$$
MNZ001>005-007-008-013>017-022>024-027-028-271900-
   Northwest Minnesota

CITY           SKY/WX    TMP DP  RH WIND       PRES   REMARKS
BEMIDJI        PTSUNNY   72  61  68 NE7       30.03R
HALLOCK        MOSUNNY   73  59  60 N13G21    30.08R
ROSEAU         SUNNY     75  64  69 NE10G16   30.06S
WARROAD        MOSUNNY   73  63  68 NE13      30.08R
THIEF RVR FALL MOSUNNY   73  58  59 N8        30.06R
CROOKSTON      SUNNY     73  61  64 N13       30.07R
FOSSTON        SUNNY     75  61  60 N9        30.05R
DETROIT LAKES  SUNNY     73  61  64 N8        30.05R
MOORHEAD       SUNNY     75  59  57 N13       30.05R
PARK RAPIDS    CLOUDY    71  62  73 CALM      30.04R
MAHNOMEN       FAIR      76  58  54 N10       30.04R
$$
MNZ006-009>011-018-025>026-271900-
   North Central Minnesota

CITY           SKY/WX    TMP DP  RH WIND       PRES   REMARKS
BAUDETTE       MOSUNNY   77  56  48 E8        30.05S
FLAG ISLAND    SUNNY     70  57  64 N13       30.07F
INTL FALLS     CLOUDY    75  59  57 NE9       30.05F
6HR MIN TEMP:  65; 6HR MAX TEMP:  75;

WASKISH        SUNNY     77  61  57 E6        30.03F
BIG FORK       CLOUDY    70  61  73 E5        30.05R
LONGVILLE      CLOUDY    68  64  88 CALM      30.02S
GRAND RAPIDS   CLOUDY    66  61  84 VRB6      30.06R
CRANE LAKE     CLOUDY    68  59  73 NE2       30.07R
ORR            CLOUDY    68  61  77 CALM      30.03R
COOK           CLOUDY    66  61  82 CALM      30.05S
WALKER         CLOUDY    68  62  83 NE6       30.03S
$$
MNZ012-019>021-037-271900-
   Northeast Minnesota

CITY           SKY/WX    TMP DP  RH WIND       PRES   REMARKS
DULUTH         LGT RAIN  64  56  75 NE17      30.04S
6HR MIN TEMP:  64; 6HR MAX TEMP:  67; 6HR PCP: TRACE;

ELY            CLOUDY    68  61  77 CALM      30.05S
HIBBING        LGT RAIN  63  61  93 E7        30.05R
EVELETH        RAIN      63  60  91 SE5       30.06R
DULUTH HARBOR  RAIN      63  61  94 NE20      30.02F
TWO HARBORS    RAIN      66  61  82 NE9       30.05R
SILVER BAY     RAIN      61  57  88 NE9       30.05R
GRAND MARAIS     N/A     63  54  72 NE10      30.03F
G MARAIS ARPRT PTSUNNY   66  52  59 E6        30.07F
$$
MNZ029>031-032-039>041-046>048-054>057-064-271900-
   West Central Minnesota

CITY           SKY/WX    TMP DP  RH WIND       PRES   REMARKS
FERGUS FALLS   MOSUNNY   75  63  64 N12G17    30.04R
WHEATON        MOSUNNY   79  68  69 NW8       30.04R
MORRIS         CLOUDY    77  66  69 NW10      30.01R
ALEXANDRIA     CLOUDY    74  63  68 N3        30.03S
ELBOW LAKE     FAIR      73  65  75 N13       30.03R
GLENWOOD       CLOUDY    73  66  78 N7        30.02S
APPLETON       MOSUNNY   77  64  65 NW9       30.00S
BENSON         MOSUNNY   79  64  61 N8        30.00S
ORTONVILLE     PTSUNNY   75  64  69 NW13      30.02S
MADISON        SUNNY     77  64  65 N8        30.01F
WILLMAR        FAIR      79  66  65 N8        30.00S
$$
MNZ033>034-036-042>043-049>051-058-059-271900-
   Central Minnesota

CITY           SKY/WX    TMP DP  RH WIND       PRES   REMARKS
ST CLOUD       LGT RAIN  70  69  97 N9        29.96F
6HR MIN TEMP:  67; 6HR MAX TEMP:  74; 6HR PCP:  0.08;

SAUK CENTRE    MOCLDY    73  65  76 N5        30.01R
PAYNESVILLE    PTSUNNY   76  67  73 NE5       29.99S
AITKIN         MIX PCPN  70  63  78 CALM      30.00S
PINE RIVER     CLOUDY    66  66 100 N5        30.06R
BRAINERD       LGT RAIN  67  64  90 NE8       30.01S
STAPLES        CLOUDY    70  63  78 N5        30.03R
LONG PRAIRIE   CLOUDY    70  64  83 CALM      30.02R
LITTLE FALLS   PTSUNNY   68  63  83 NE6       30.01S
LITCHFIELD     PTSUNNY   73  72  94 NW6       29.99R
BUFFALO        TSTM      74  69  84 S3        29.96S
MAPLE LAKE     TSTM      73  69  90 W6        29.97F
HUTCHINSON     CLOUDY    74  70  86 NW9       29.99R
$$
MNZ037-044-045-052-053-271900-
   East Central Minnesota

CITY           SKY/WX    TMP DP  RH WIND       PRES   REMARKS
PRINCETON      TSTM      72  68  88 NW14      29.96R
MORA           LGT RAIN  66  63  88 N6        29.99F
CAMBRIDGE      CLOUDY    75  66  73 NE3       29.92F
RUSH CITY      CLOUDY    74  71  88 NE5       29.96S
MOOSE LAKE     LGT RAIN  63  59  88 NE7       30.01S
HINCKLEY       DRIZZLE   70  70 100 N8        29.98F
CLOQUET        LGT RAIN  63  55  77 NE7       30.03S
MCGREGOR       CLOUDY    63  61  94 E10       30.03R
$$
MNZ071>073-080-081-089-090-097-098-271900-
   Southwest Minnesota

CITY           SKY/WX    TMP DP  RH WIND       PRES   REMARKS
MONTEVIDEO     MOSUNNY   79  66  65 N10       30.01F
GRANITE FALLS  MOSUNNY   79  67  66 NW13      30.01S
CANBY          MOSUNNY   77  65  65 NW9       30.02F
MARSHALL       PTSUNNY   77  67  71 N13       30.00F
REDWOOD FALLS  MOSUNNY   79  64  60 NW7       29.98S
OLIVIA         MOSUNNY   77  64  65 NW7       29.98S
PIPESTONE      PTSUNNY   77  64  65 N6        30.04S
WINDOM         CLOUDY    75  68  78 NW8       30.01R
WORTHINGTON    PTSUNNY   78  69  73 NW13      30.02S
JACKSON        CLOUDY    81  66  61 W10       30.00S
TRACY          PTSUNNY   78  68  72 NW8       30.01F
SLAYTON        MOSUNNY   77  67  71 NW8       30.04R
$$
MNZ065>067-074>077-082>085-091>093-271900-
   South Central Minnesota

CITY           SKY/WX    TMP DP  RH WIND       PRES   REMARKS
MANKATO        CLOUDY    75  64  69 SW10G18   29.99R
NEW ULM        PTSUNNY   75  70  83 NW10      29.98R
ST JAMES       CLOUDY    75  64  69 W7        29.99S
FAIRMONT       CLOUDY    77  68  73 SW9       29.99R
GLENCOE        CLOUDY    78  72  79 SW5       29.96S THUNDER
FARIBAULT      MOSUNNY   79  70  73 S7        29.99R
OWATONNA       CLOUDY    79  66  65 S12       30.00R
WASECA         CLOUDY    77  68  73 S16       30.01R
ALBERT LEA     PTSUNNY   75  68  78 S7        30.00S
$$
MNZ078>079-086>088-094>096-271900-
   Southeast Minnesota

CITY           SKY/WX    TMP DP  RH WIND       PRES   REMARKS
ROCHESTER      CLOUDY    76  67  73 S9        30.01S
6HR MIN TEMP:  66; 6HR MAX TEMP:  79;

RED WING       MOSUNNY   81  66  61 S7        29.95S
STANTON        CLOUDY    79  68  69 S5        29.96R
DODGE CENTER   PTSUNNY   75  66  73 S10       29.99F
WINONA         CLOUDY    79  64  61 SW5       29.99R
AUSTIN         LGT RAIN  75  68  78 S7        30.00S
PRESTON        CLOUDY    78  65  64 S9        30.02F
$$
ABBREVIATIONS USED IN REMARKS
   TC - TEMPERATURES IN CELSIUS
  WCI - WIND CHILL INDEX
   HX - HEAT INDEX
  VSB - VISIBILITY
$$




USA.gov is the U.S. government's official web portal to all federal, state and local government web resources and services.